This is the latest recevied weather packets stored in our database for station/object EA5JUX. If no packets are shown the sender has not sent any weather packets the latest 10 day(s).
| Time | Temp. | Humidity | Pressure | Rain* | Wind** | Luminosity | Snow |
|---|---|---|---|---|---|---|---|
| 1787764622 | 27.78° C | 64% | 1009 hPa | 0 mm | - | - | - |
| 1787764314 | 27.22° C | 64% | 1008.9 hPa | 0 mm | - | - | - |
| 1787764001 | 27.22° C | 65% | 1008.8 hPa | 0 mm | - | - | - |
| 1787763701 | 27.22° C | 65% | 1008.9 hPa | 0 mm | - | - | - |
| 1787763411 | 27.78° C | 67% | 1009 hPa | 0 mm | - | - | - |
| 1787763102 | 28.33° C | 65% | 1009 hPa | 0 mm | - | - | - |
| 1787762801 | 27.78° C | 64% | 1008.8 hPa | 0 mm | - | - | - |
| 1787762501 | 27.78° C | 65% | 1008.9 hPa | 0 mm | - | - | - |
| 1787762201 | 28.33° C | 65% | 1009 hPa | 0 mm | - | - | - |
| 1787761916 | 28.33° C | 66% | 1008.9 hPa | 0 mm | - | - | - |
| 1787761601 | 27.78° C | 68% | 1008.8 hPa | 0 mm | - | - | - |
| 1787761302 | 27.78° C | 69% | 1009.1 hPa | 0 mm | - | - | - |
| 1787761021 | 27.78° C | 68% | 1009.2 hPa | 0 mm | - | - | - |
| 1787760718 | 27.78° C | 67% | 1009.3 hPa | 0 mm | - | - | - |
| 1787760421 | 27.78° C | 67% | 1009.2 hPa | 0 mm | - | - | - |
| 1787760101 | 27.78° C | 65% | 1009.2 hPa | 0 mm | - | - | - |
| 1787759802 | 27.78° C | 65% | 1009.4 hPa | 0 mm | - | - | - |
| 1787759501 | 28.33° C | 65% | 1009.6 hPa | 0 mm | - | - | - |
| 1787759201 | 27.78° C | 64% | 1009.5 hPa | 0 mm | - | - | - |
| 1787758901 | 27.78° C | 68% | 1009.5 hPa | 0 mm | - | - | - |
| 1787758602 | 27.78° C | 69% | 1009.6 hPa | 0 mm | - | - | - |
| 1787758302 | 27.78° C | 69% | 1009.7 hPa | 0 mm | - | - | - |
| 1787758001 | 28.33° C | 68% | 1009.7 hPa | 0 mm | - | - | - |
| 1787757701 | 28.33° C | 68% | 1009.6 hPa | 0 mm | - | - | - |
| 1787757401 | 27.78° C | 69% | 1009.4 hPa | 0 mm | - | - | - |
* Rain latest hour (hover to see other rain measurements)
** Current wind speed in m/s (hover to see current wind gust speed)